This demonstration page uses our WeatherBlox Daily Observations layout. Learn more.

Left ArrowRight Arrow

39.01783, -85.05884

Hourly Observations for August 5, 2022

Temp ( °F °C ) Dew Point ( °F °C ) Humidity (%) Winds ( mph kmh ) Pressure ( in mb ) Visibility ( mi km ) Precip ( " mm )
12:52 am 00:52 Cloudy 74 23.3 70 21.1 88 88 S 6 9 30.06 1018 10 16 0.00 0.00
1:52 am 01:52 Cloudy 73 22.8 72 22.2 96 96 E 6 9 30.06 1018 10 16 0.00 0.00
2:52 am 02:52 Mostly Clear 73 22.8 73 22.8 100 100 ESE 7 11 30.06 1018 10 16 0.00 0.00
3:52 am 03:52 Mostly Cloudy 73 22.8 73 22.8 100 100 SSE 8 13 30.06 1018 10 16 0.00 0.00
4:52 am 04:52 Mostly Cloudy 73 22.8 73 22.8 100 100 SSE 7 11 30.06 1018 10 16 0.00 0.00
5:52 am 05:52 Mostly Clear 73 22.8 73 22.8 100 100 SSE 5 7 30.06 1018 10 16 0.00 0.00
6:52 am 06:52 Mostly Cloudy 73 22.8 73 22.8 100 100 SSE 3 6 30.07 1018 8 13 0.00 0.00
7:52 am 07:52 Cloudy 74 23.3 74 23.3 100 100 S 5 7 30.09 1019 9 14 0.00 0.00
8:09 am 08:09 Cloudy 74 23.3 74 23.3 100 100 S 7 11 30.09 1019 10 16 0.00 0.00
8:42 am 08:42 Cloudy with Rain 75 23.9 74 23.3 96 96 SSW 17 28 30.10 1019 1 2 0.00 0.00
8:45 am 08:45 Cloudy with Heavy Rain 74 23.3 73 22.8 97 97 WSW 18 30 30.10 1019 1 1 0.01 0.25
8:52 am 08:52 Cloudy with Heavy Rain 74 23.3 71 21.7 91 91 Calm 30.10 1019 1 2 0.39 9.91
8:56 am 08:56 Cloudy with Rain 73 22.8 71 21.7 94 94 SSE 5 7 30.10 1019 2 3 0.25 6.35
9:01 am 09:01 Cloudy with Light Rain 73 22.8 71 21.7 94 94 SSE 6 9 30.10 1019 4 6 0.38 9.65
9:17 am 09:17 Cloudy with Light Rain 73 22.8 73 22.8 100 100 S 5 7 30.11 1020 8 13 0.42 10.67
9:24 am 09:24 Cloudy with Nearby Thunderstorms 73 22.8 73 22.8 100 100 S 5 7 30.11 1020 8 13 0.42 10.67
9:33 am 09:33 Cloudy 74 23.3 74 23.3 100 100 S 7 11 30.11 1020 8 13 0.42 10.67
9:43 am 09:43 Cloudy with Rain 74 23.3 74 23.3 100 100 SW 9 15 30.12 1020 3 4 0.42 10.67
9:52 am 09:52 Cloudy with Rain 73 22.8 73 22.8 100 100 S 8 13 30.11 1020 2 3 0.69 17.53
10:25 am 10:25 Cloudy with Rain 72 22.2 72 22.2 100 100 SSW 10 17 30.13 1020 2 3 0.58 14.73
10:35 am 10:35 Cloudy with Heavy Rain 73 22.8 73 22.8 100 100 S 13 20 30.14 1021 2 2 0.71 18.03
10:38 am 10:38 Cloudy with Heavy Rain 73 22.8 73 22.8 100 100 S 10 17 30.13 1020 1 2 0.78 19.81
10:47 am 10:47 Cloudy with Strong Thunderstorms 72 22 72 22 100 100 S 10 17 30.12 1020 1 2 0.95 24.13
10:52 am 10:52 Cloudy with Strong Thunderstorms 71 21.7 71 21.7 100 100 SW 6 9 30.13 1020 2 3 1.06 26.92
10:57 am 10:57 Cloudy with Heavy Rain 71 21.7 71 21.7 100 100 VRB 3 6 30.13 1020 1 1 0.06 1.52
11:00 am 11:00 Cloudy with Heavy Rain 72 22.2 72 22.2 100 100 NNW 6 9 30.13 1020 2 3 0.08 2.03
11:06 am 11:06 Cloudy with Light Rain 72 22.2 72 22.2 100 100 NE 9 15 30.14 1021 3 5 0.10 2.54
11:52 am 11:52 Cloudy with Light Rain 73 22.8 73 22.8 100 100 S 9 15 30.13 1020 7 11 0.19 4.83
12:32 pm 12:32 Cloudy with Light Rain 76 24.4 76 24.4 100 100 S 12 19 30.11 1020 8 13 0.01 0.25
12:52 pm 12:52 Mostly Cloudy with Light Rain 76 24.4 75 23.9 97 97 S 10 17 30.11 1020 10 16 0.01 0.25
1:20 pm 13:20 Mostly Cloudy 77 25 75 23.9 94 94 SE 6 9 30.11 1020 10 16 0.00 0.00
1:52 pm 13:52 Mostly Cloudy 80 26.7 76 24.4 87 87 ESE 9 15 30.12 1020 10 16 0.00 0.00
2:52 pm 14:52 Mostly Cloudy 81 27.2 75 23.9 82 82 S 13 20 30.10 1019 10 16 0.00 0.00
3:31 pm 15:31 Mostly Cloudy 82 27.8 76 24.4 82 82 S 10 17 30.07 1018 10 16 0.00 0.00
3:52 pm 15:52 Mostly Cloudy 81 27.2 75 23.9 82 82 S 14 22 30.09 1019 10 16 0.00 0.00
4:31 pm 16:31 Mostly Cloudy 82 27.8 76 24.4 82 82 SSE 13 20 30.06 1018 10 16 0.00 0.00
4:52 pm 16:52 Mostly Cloudy 83 28.3 76 24.4 79 79 S 12 19 30.07 1018 10 16 0.00 0.00
5:52 pm 17:52 Mostly Cloudy 81 27.2 74 23.3 79 79 SSW 12 19 30.07 1018 10 16 0.00 0.00
6:52 pm 18:52 Mostly Cloudy 81 27.2 74 23.3 79 79 S 9 15 30.06 1018 10 16 0.00 0.00
7:52 pm 19:52 Mostly Cloudy 79 26.1 74 23.3 85 85 S 9 15 30.06 1018 10 16 0.00 0.00
8:52 pm 20:52 Partly Cloudy 76 24.4 74 23.3 94 94 S 7 11 30.07 1018 10 16 0.00 0.00
9:52 pm 21:52 Partly Cloudy 75 23.9 74 23.3 96 96 S 7 11 30.08 1019 10 16 0.00 0.00
10:52 pm 22:52 Mostly Clear 74 23.3 74 23.3 100 100 S 7 11 30.10 1019 10 16 0.00 0.00
11:52 pm 23:52 Cloudy 75 23.9 74 23.3 96 96 SSE 8 13 30.11 1020 10 16 0.00 0.00

Powered by AerisWeather